DateTimeUTC,F1_A11,F1_S11,BsB_S11,BsG_S11,BsR_S11,BbsB_S11,BbsG_S11,BbsR_S11,BaB_A11,BaG_A11,BaR_A11,Tu_S11,T_S11,Uu_S11,U_S11,P_S11,T1_A11
2021-09-01T09:00:00Z,00040200,20000000,,,,,,,0000.16,-000.19,-000.29,18.1,25.0,02.0,01.3,0674.9,31.0
2021-09-01T09:01:00Z,00040200,20000000,,,,,,,-000.39,-000.04,-000.20,18.1,25.0,02.0,01.3,0674.9,30.9
2021-09-01T09:02:00Z,00040200,20000000,,,,,,,0000.02,0000.01,-000.07,18.1,25.0,01.9,01.3,0674.9,30.9
2021-09-01T09:03:00Z,00040200,60000000,,,,,,,-000.10,-000.08,0000.17,18.2,25.0,01.7,01.1,0674.9,31.0
2021-09-01T09:04:00Z,00040200,40000000,0003.38,0001.91,0001.54,0000.94,0000.40,0000.23,0000.39,0000.53,-000.37,18.5,25.0,01.8,01.2,0675.9,31.0
2021-09-01T09:05:00Z,00040200,00000000,0002.83,0002.51,0001.81,0000.38,0000.55,0000.51,0000.62,0000.10,0000.93,18.5,24.9,01.9,01.3,0676.0,30.9
2021-09-01T09:06:00Z,00040200,01000000,0003.83,0002.59,0001.95,0000.94,0000.19,0000.53,0000.55,0000.48,0000.19,18.5,24.8,01.8,01.2,0676.0,30.9
2021-09-01T09:07:00Z,00040200,01000000,0002.45,0002.53,0001.96,0000.80,0000.17,0000.29,0000.49,0000.84,0000.60,18.4,24.8,01.7,01.2,0676.0,30.9
2021-09-01T09:08:00Z,00040200,01000000,0003.53,0002.56,0001.94,0001.25,0000.64,0000.41,0000.76,0000.54,0000.42,18.4,24.8,01.8,01.2,0676.0,30.9
2021-09-01T09:09:00Z,00040200,01000000,0002.82,0002.50,0001.66,0000.30,0000.38,0000.28,0001.28,0001.14,0000.75,18.3,24.8,01.8,01.2,0676.0,30.9
2021-09-01T09:10:00Z,00040200,01000000,0002.66,0002.38,0002.04,0000.51,0000.34,0000.17,0000.81,0000.69,0001.00,18.3,24.7,02.0,01.3,0676.0,30.9
2021-09-01T09:11:00Z,00040200,00000000,0002.88,0002.34,0002.07,0000.06,0000.43,0000.75,0000.92,0001.09,0000.59,18.3,24.7,02.2,01.5,0676.0,30.9
2021-09-01T09:12:00Z,00040200,00000000,0002.90,0002.35,0001.61,0000.73,0000.58,0000.35,0000.38,0000.26,0000.22,18.2,24.7,02.2,01.5,0676.0,30.9
2021-09-01T09:13:00Z,00040200,00000000,0003.41,0002.62,0001.58,0000.26,0000.47,0000.05,0000.63,0000.71,0000.42,18.2,24.7,02.3,01.5,0676.0,30.9
2021-09-01T09:14:00Z,00040200,00000000,0003.02,0002.43,0002.01,0000.42,0000.45,0000.31,0000.73,0000.75,0000.90,18.2,24.7,02.2,01.5,0676.0,30.9
2021-09-01T09:15:00Z,00040200,00000000,0003.40,0002.57,0001.90,0000.95,0000.33,0000.52,0001.04,0000.81,0000.82,18.3,24.7,02.3,01.6,0676.0,30.9
2021-09-01T09:16:00Z,00040200,00000000,0003.41,0002.57,0001.55,0000.58,0000.56,0000.45,0000.92,0001.08,0000.66,18.4,24.7,02.4,01.7,0676.1,30.9
2021-09-01T09:17:00Z,00040200,00000000,0003.17,0002.55,0001.66,0000.46,0000.37,0000.32,0000.27,0000.13,0000.41,18.6,24.8,02.5,01.7,0676.1,31.0
2021-09-01T09:18:00Z,00040200,00000000,0003.21,0002.44,0001.88,0000.37,0000.20,0000.41,0000.54,0000.31,-000.22,18.6,24.9,02.4,01.6,0676.1,31.0
2021-09-01T09:19:00Z,00040200,00000000,0003.65,0002.14,0001.76,0000.52,0000.40,0000.41,0000.03,0000.43,0000.34,18.7,24.9,02.1,01.4,0676.1,31.0
2021-09-01T09:20:00Z,00040200,00000000,0003.36,0002.39,0001.71,0000.34,0000.35,0000.23,0000.12,0000.05,0000.20,18.6,24.9,02.2,01.5,0676.1,31.0
2021-09-01T09:21:00Z,00040200,00000000,0002.94,0002.06,0001.82,0000.43,0000.65,0000.68,0001.09,0000.76,0000.27,18.6,24.9,02.2,01.5,0676.1,31.0
2021-09-01T09:22:00Z,00040200,00000000,0004.09,0002.66,0002.00,0000.61,0000.28,0000.47,0000.41,0001.12,0000.77,18.6,24.8,02.3,01.5,0676.1,30.9
2021-09-01T09:23:00Z,00040200,00000000,0003.32,0002.47,0001.77,0000.59,0000.43,0000.50,0000.79,0000.07,0000.46,18.5,24.8,02.3,01.6,0676.1,30.9
2021-09-01T09:24:00Z,00040200,00000000,0002.75,0002.50,0001.88,0000.26,0000.38,0000.50,0000.67,0000.26,0000.27,18.5,24.8,02.4,01.6,0676.1,30.9
2021-09-01T09:25:00Z,00040200,00000000,0003.09,0002.42,0002.08,0000.34,0000.46,0000.56,0001.33,0001.81,0001.27,18.4,24.8,02.5,01.7,0676.1,30.9
2021-09-01T09:26:00Z,00040200,00000000,0002.75,0002.66,0001.93,0000.51,0000.28,0000.28,0000.61,0000.11,0000.50,18.4,24.7,02.6,01.8,0676.0,30.9
2021-09-01T09:27:00Z,00040200,00000000,0002.45,0002.15,0001.79,0000.38,0000.36,0000.61,0000.55,0000.93,0000.33,18.4,24.7,02.7,01.8,0676.0,30.9
2021-09-01T09:28:00Z,00040200,00000000,0003.51,0002.40,0001.69,0000.61,0000.48,0000.39,0000.51,0000.36,0000.35,18.3,24.7,02.7,01.8,0676.1,30.9
2021-09-01T09:29:00Z,00040200,00000000,0003.62,0002.30,0001.87,0001.13,0000.41,0000.25,0000.33,0000.40,0000.32,18.4,24.7,02.5,01.7,0676.0,30.9
2021-09-01T09:30:00Z,00040200,00000000,0003.44,0002.71,0001.82,0000.87,0000.19,0000.26,0000.46,0000.27,0000.29,18.5,24.7,02.5,01.7,0676.0,30.9
2021-09-01T09:31:00Z,00040200,00000000,0003.35,0002.44,0002.07,0001.27,0000.41,0000.34,0000.13,0000.42,-000.01,18.5,24.8,02.3,01.6,0676.1,31.0
2021-09-01T09:32:00Z,00040200,00000000,0003.38,0002.33,0001.41,0000.61,0000.50,0000.41,0000.42,0000.04,0000.72,18.6,24.8,02.3,01.6,0676.1,31.0
2021-09-01T09:33:00Z,00040200,00000000,0003.79,0002.29,0001.52,0000.17,0000.41,0000.10,0000.18,0000.31,0000.09,18.6,24.8,02.3,01.5,0676.1,30.9
2021-09-01T09:34:00Z,00040200,00000000,0002.95,0002.14,0001.51,0000.66,0000.16,0000.36,0000.23,0000.51,0000.26,18.6,24.8,02.1,01.5,0676.1,31.0
2021-09-01T09:35:00Z,00040200,00000000,0003.82,0002.72,0001.71,0000.82,0000.60,0000.21,0000.69,0000.23,0000.11,18.6,24.8,02.1,01.4,0676.0,30.9
2021-09-01T09:36:00Z,00040200,00000000,0003.87,0002.41,0002.00,0000.49,0000.19,0000.46,0000.78,0000.52,0000.81,18.5,24.8,02.2,01.5,0676.0,30.9
2021-09-01T09:37:00Z,00040200,00000000,0003.10,0002.29,0001.65,0000.91,0000.32,0000.33,0001.26,0001.68,0000.49,18.5,24.7,02.3,01.5,0676.1,30.9
2021-09-01T09:38:00Z,00040200,00000000,0003.79,0002.01,0001.52,0001.41,0000.46,0000.62,0000.96,0000.72,0000.82,18.4,24.7,02.4,01.7,0676.1,30.9
2021-09-01T09:39:00Z,00040200,00000000,0003.08,0002.64,0001.78,0001.02,0000.22,0000.28,0000.58,0000.40,0000.70,18.4,24.7,02.5,01.7,0676.0,30.9
2021-09-01T09:40:00Z,00040200,00000000,0002.97,0002.48,0001.58,0000.24,0000.48,0000.35,0000.44,0000.80,0000.35,18.4,24.7,02.5,01.7,0676.0,30.9
2021-09-01T09:41:00Z,00040200,00000000,0003.39,0002.30,0001.83,0000.73,0000.23,0000.45,0000.93,0000.46,0000.57,18.4,24.7,02.5,01.7,0676.0,30.9
2021-09-01T09:42:00Z,00040200,00000000,0003.20,0002.80,0001.97,0000.42,0000.68,-000.01,0000.59,0001.01,0000.57,18.3,24.7,02.7,01.8,0676.0,30.9
2021-09-01T09:43:00Z,00040200,00000000,0003.64,0002.72,0001.78,0000.72,0000.28,0000.46,0000.81,0000.47,0000.52,18.3,24.6,02.7,01.8,0676.0,30.9
2021-09-01T09:44:00Z,00040200,00000000,0003.42,0002.52,0002.02,0000.01,0000.51,0000.38,0000.91,0000.87,0000.79,18.3,24.6,02.7,01.8,0676.0,30.9
2021-09-01T09:45:00Z,00040200,00000000,0002.74,0002.36,0002.19,0000.36,0000.28,0000.31,0000.47,0000.71,0000.61,18.4,24.7,02.7,01.8,0676.0,30.9
2021-09-01T09:46:00Z,00040200,00000000,0002.71,0002.89,0001.81,0000.78,0000.48,0000.01,0000.70,0000.34,-000.05,18.5,24.8,02.7,01.8,0676.0,31.0
2021-09-01T09:47:00Z,00040200,00000000,0003.59,0002.31,0001.93,0000.99,0000.25,0000.44,0000.60,0000.51,0000.82,18.6,24.8,02.7,01.9,0676.0,31.0
2021-09-01T09:48:00Z,00040200,00000000,0003.60,0002.66,0001.69,0000.79,0000.20,0000.22,-000.03,0000.15,0000.18,18.6,24.8,02.7,01.9,0676.0,31.0
2021-09-01T09:49:00Z,00040200,00000000,0003.72,0002.61,0002.08,0000.28,0000.27,0000.31,0000.69,0000.17,0000.05,18.6,24.8,02.5,01.7,0676.0,31.0
2021-09-01T09:50:00Z,00040200,00000000,0003.13,0002.49,0001.88,0000.60,0000.47,0000.60,0000.18,0000.41,0000.39,18.6,24.8,02.4,01.7,0676.0,31.0
2021-09-01T09:51:00Z,00040200,00000000,0003.44,0002.47,0002.11,0001.16,0000.27,0000.06,0000.31,-000.11,0000.05,18.6,24.8,02.4,01.7,0676.0,30.9
2021-09-01T09:52:00Z,00040200,00000000,0003.50,0002.70,0001.74,0000.80,0000.17,0000.36,0000.64,0000.97,0000.44,18.5,24.8,02.4,01.6,0676.0,30.9
2021-09-01T09:53:00Z,00040200,00000000,0003.46,0002.24,0002.18,0000.44,0000.48,0000.62,0000.25,0000.39,0000.38,18.5,24.7,02.4,01.6,0676.0,30.9
2021-09-01T09:54:00Z,00040200,00000000,0003.40,0002.71,0001.83,0000.44,0000.49,0000.57,0000.79,0000.58,0000.35,18.4,24.7,02.3,01.6,0676.0,30.9
2021-09-01T09:55:00Z,00040200,00000000,0003.41,0002.95,0002.35,0000.53,0000.41,0000.21,0000.34,0000.29,0000.39,18.4,24.7,02.3,01.6,0676.0,30.9
2021-09-01T09:56:00Z,00040200,00000000,0002.94,0002.68,0001.79,0000.43,0000.67,0000.42,0000.18,0000.10,0000.28,18.4,24.7,02.2,01.5,0676.0,30.9
2021-09-01T09:57:00Z,00040200,40000000,,,,,,,0000.26,0000.42,0000.36,18.4,24.7,01.9,01.3,0676.0,30.9
2021-09-01T09:58:00Z,00040200,60000000,,,,,,,-000.20,-000.83,-000.44,18.1,24.8,02.1,01.4,0675.1,30.9
2021-09-01T09:59:00Z,00040200,20000000,,,,,,,-000.14,0000.35,0000.48,18.1,24.9,02.0,01.3,0675.1,30.9
